Location: Newark
(47.5833°N, 8.1500°E)
Time: 17:37:27
(UTC+00:00)

Transit 2A - Pass Details

Date: 28 October 2020
Orbit: 595 x 964 km, 66.7° (Epoch: 29 November)

Event Time Altitude Azimuth Distance (km) Brightness Sun altitude
Rises 01:34:17 0° 231° (SW) 3,631 - -44.6°
Reaches altitude 10° 01:36:56 10° 237° (WSW) 2,696 - -44.2°
Maximum altitude 01:43:07 51° 312° (NW) 1,194 - -43.4°
Exits shadow 01:47:37 18° 22° (NNE) 2,118 8.6 -42.7°
Drops below altitude 10° 01:49:09 10° 28° (NNE) 2,630 9.3 -42.5°
Sets 01:51:43 0° 34° (NNE) 3,535 10.1 -42.1°
